GW6711 Weather Reports


Display with metric or nautical units.
time (UTC)temp
F
wind
direction
speed
MPH
gust
MPH
rain 1hr
in
rain 24hr
in
rain mn
in
humidity
%
barometer
mb
20260503023057 57 0 0.0 1.0 0.00 0.00 0.00 45 1016.3
20260503021553 59 0 0.0 2.0 0.00 0.00 0.00 43 1016.2
20260503020056 61 0 0.0 1.0 0.00 0.00 0.00 40 1016.2
20260503014602 63 0 0.0 1.0 0.00 0.00 0.00 38 1016.2
20260503013053 66 0 0.0 2.0 0.00 0.00 0.00 36 1016.3
20260503011555 66 243 1.0 4.0 0.00 0.00 0.00 33 1016.3
20260503010056 67 183 0.0 2.0 0.00 0.00 0.00 33 1016.5
20260503004559 66 246 2.0 3.0 0.00 0.00 0.00 34 1016.6
20260503003055 65 204 0.0 4.0 0.00 0.00 0.00 36 1016.7
20260503001618 65 174 1.0 2.0 0.00 0.00 0.00 36 1016.8
20260503000134 65 143 0.0 3.0 0.00 0.00 0.00 36 1017.0
20260502234557 65 0 1.0 5.0 0.00 0.00 0.00 35 1017.1
20260502233051 66 134 1.0 8.0 0.00 0.00 0.00 35 1017.1
20260502231559 66 0 0.0 6.0 0.00 0.00 0.00 34 1017.4
20260502230048 67 198 1.0 4.0 0.00 0.00 0.00 34 1017.6
20260502224549 66 281 2.0 7.0 0.00 0.00 0.00 34 1017.8
20260502223050 67 312 2.0 5.0 0.00 0.00 0.00 34 1017.9
20260502221554 67 54 2.0 5.0 0.00 0.00 0.00 35 1018.2
20260502220050 67 283 2.0 5.0 0.00 0.00 0.00 35 1018.5
20260502214557 64 292 1.0 5.0 0.00 0.00 0.00 39 1018.6
20260502213054 64 283 2.0 7.0 0.00 0.00 0.00 38 1018.9
20260502211553 65 75 1.0 4.0 0.00 0.00 0.00 37 1019.1
20260502210107 66 200 2.0 7.0 0.00 0.00 0.00 37 1019.2
20260502204556 66 127 0.0 4.0 0.00 0.00 0.00 38 1019.3
20260502203051 64 285 3.0 9.0 0.00 0.00 0.00 39 1019.6
20260502201551 66 0 1.0 7.0 0.00 0.00 0.00 39 1019.6
20260502200052 64 65 1.0 5.0 0.00 0.00 0.00 42 1019.9
20260502194556 63 44 2.0 6.0 0.00 0.00 0.00 43 1020.1
20260502193050 61 95 3.0 6.0 0.00 0.00 0.00 44 1020.3
20260502191553 61 55 1.0 5.0 0.00 0.00 0.00 43 1020.4
20260502190054 61 8 2.0 4.0 0.00 0.00 0.00 44 1020.6
20260502184558 60 0 1.0 5.0 0.00 0.00 0.00 46 1020.5
20260502183047 60 29 2.0 4.0 0.00 0.00 0.00 44 1020.7
20260502181553 61 114 0.0 2.0 0.00 0.00 0.00 43 1020.6
20260502163054 64 84 2.0 7.0 0.00 0.00 0.00 40 1020.7
20260502161546 64 58 2.0 6.0 0.00 0.00 0.00 40 1020.7
20260502151621 59 44 2.0 5.0 0.00 0.00 0.00 46 1020.6
20260502123104 46 349 3.0 7.0 0.00 0.00 0.00 60 1019.3
20260502121550 46 357 1.0 5.0 0.00 0.00 0.00 60 1019.2
20260502114556 47 27 1.0 7.0 0.00 0.00 0.00 57 1018.8
20260502113054 47 347 4.0 9.0 0.00 0.00 0.00 56 1018.7
20260502111559 47 285 2.0 7.0 0.00 0.00 0.00 55 1018.3
20260502110055 48 41 1.0 6.0 0.00 0.00 0.00 54 1018.1
20260502104551 47 69 3.0 9.0 0.00 0.00 0.00 54 1017.9
20260502103101 48 22 2.0 5.0 0.00 0.00 0.00 51 1017.5
20260502101600 48 352 2.0 6.0 0.00 0.00 0.00 49 1017.3
20260502100123 49 316 1.0 4.0 0.00 0.00 0.00 47 1017.2
20260502070055 48 291 2.0 5.0 0.00 0.00 0.00 44 1016.0
20260502064606 49 323 2.0 5.0 0.00 0.00 0.00 42 1016.0
20260502063059 50 307 3.0 8.0 0.00 0.00 0.00 41 1016.0
20260502061610 51 293 5.0 7.0 0.00 0.00 0.00 39 1016.0
20260502060053 51 320 1.0 4.0 0.00 0.00 0.00 39 1015.9
20260502054548 50 298 4.0 6.0 0.00 0.00 0.00 39 1015.9
20260502053102 51 293 4.0 7.0 0.00 0.00 0.00 36 1015.9
20260502051554 53 298 3.0 7.0 0.00 0.00 0.00 34 1015.9
20260502050057 52 286 4.0 6.0 0.00 0.00 0.00 33 1015.9
20260502044556 53 304 3.0 6.0 0.00 0.00 0.00 33 1015.9
20260502043103 54 323 3.0 8.0 0.00 0.00 0.00 32 1015.8
20260502041613 53 302 2.0 4.0 0.00 0.00 0.00 32 1015.8
20260502040057 53 293 3.0 4.0 0.00 0.00 0.00 30 1015.9
20260502034553 54 297 1.0 4.0 0.00 0.00 0.00 28 1015.7
20260502033100 56 321 1.0 5.0 0.00 0.00 0.00 27 1015.7
20260502031558 57 295 3.0 4.0 0.00 0.00 0.00 25 1015.5
20260502030059 58 295 2.0 4.0 0.00 0.00 0.00 24 1015.3
20260502024600 60 298 2.0 5.0 0.00 0.00 0.00 23 1015.3